FW1313 Weather Reports


time (UTC)temp
C
wind
direction
speed
KPH
gust
KPH
rain 1hr
cm
rain 24hr
cm
rain mn
cm
humidity
%
barometer
mb
20260505190402 3 155 0.0 0.0 0.00 0.53 0.00 95 1008.9
20260505183402 3 204 0.0 0.0 0.00 0.53 0.00 95 1008.7
20260505180359 2 165 0.0 0.0 0.00 0.53 0.00 95 1008.5
20260505173359 2 214 0.0 0.0 0.03 0.53 0.00 95 1008.1
20260505170359 2 231 0.0 0.0 0.08 0.53 0.00 95 1007.8
20260505163358 2 173 0.0 0.0 0.10 0.48 0.00 95 1007.4
20260505160359 2 231 0.0 0.0 0.08 0.46 0.00 95 1007.1
20260505153358 2 178 0.0 0.0 0.08 0.41 0.00 95 1006.9
20260505150359 2 174 0.0 0.0 0.08 0.36 0.00 95 1006.7
20260505140359 1 204 0.0 0.0 0.18 0.30 0.00 95 1006.6
20260505123402 1 159 0.0 0.0 0.03 0.08 0.00 94 1006.5
20260505120358 1 173 0.0 0.0 0.00 0.05 0.00 94 1006.6
20260505113358 2 192 0.0 0.0 0.00 0.05 0.00 94 1006.9
20260505110358 2 222 0.0 0.0 0.00 0.05 0.00 94 1007.0
20260505100358 2 153 0.0 0.0 0.00 0.05 0.00 94 1007.3
20260505093359 2 180 0.0 0.0 0.00 0.05 0.00 94 1007.5
20260505090358 2 209 0.0 0.0 0.00 0.05 0.00 94 1008.1
20260505083358 2 159 0.0 0.0 0.03 0.05 0.00 94 1008.3
20260505080401 2 145 0.0 0.0 0.03 0.05 0.00 94 1008.7
20260505073358 2 169 0.0 0.0 0.00 0.03 0.00 94 1009.0
20260505070359 2 157 0.0 0.0 0.00 0.03 0.00 94 1009.1
20260505063358 2 201 0.0 0.0 0.00 0.03 0.00 94 1009.3
20260505060359 2 176 0.0 0.0 0.00 0.03 0.00 94 1009.3
20260505053358 2 186 0.0 1.6 0.00 0.03 0.00 94 1009.5
20260505050358 2 155 0.0 0.0 0.00 0.03 0.00 94 1009.5
20260505040358 3 218 0.0 0.0 0.03 0.03 0.00 94 1009.0
20260505033358 3 221 0.0 0.0 0.03 0.03 0.00 94 1008.8
20260505030401 3 187 0.0 0.0 0.00 0.00 0.00 94 1008.6
20260505023359 3 194 0.0 0.0 0.00 0.00 0.00 94 1008.5
20260505020402 3 211 0.0 0.0 0.00 0.00 0.00 93 1008.4
20260505013359 3 204 0.0 0.0 0.00 0.00 0.00 93 1008.5
20260505010359 3 217 0.0 1.6 0.00 0.00 0.00 93 1008.5
20260505003358 3 157 0.0 0.0 0.00 0.00 0.00 93 1008.4
20260505000402 3 190 0.0 0.0 0.00 0.00 0.00 91 1008.2
20260504233359 3 160 0.0 0.0 0.00 0.00 0.00 89 1008.1
20260504230359 3 191 0.0 0.0 0.00 0.00 0.00 89 1008.3
20260504223359 3 181 0.0 0.0 0.00 0.00 0.00 89 1008.1
20260504220358 3 159 0.0 1.6 0.00 0.00 0.00 90 1007.9
20260504213358 3 172 0.0 0.0 0.00 0.00 0.00 91 1008.2
20260504210401 3 177 0.0 0.0 0.00 0.00 0.00 91 1008.3
20260504203402 3 170 0.0 0.0 0.00 0.00 0.00 91 1008.1
20260504200358 3 164 0.0 0.0 0.00 0.00 0.00 91 1007.7